EW4713 Weather Reports


time (UTC)temp
C
wind
direction
speed
KPH
gust
KPH
rain 1hr
cm
rain 24hr
cm
rain mn
cm
humidity
%
barometer
mb
20201126035419 -2 124 1.6 12.9 0.00 0.00 0.00 95 1008.5
20201126034912 -2 135 0.0 8.0 0.00 0.00 0.00 95 1008.5
20201126034401 -2 328 0.0 8.0 0.00 0.00 0.00 95 1008.5
20201126033859 -2 141 1.6 12.9 0.00 0.00 0.00 95 1008.6
20201126033345 -2 119 3.2 12.9 0.00 0.00 0.00 95 1008.6
20201126032837 -2 157 9.7 12.9 0.00 0.00 0.00 95 1008.6
20201126032330 -2 180 6.4 12.9 0.00 0.00 0.00 95 1008.5
20201126031823 -2 112 3.2 12.9 0.00 0.00 0.00 95 1008.5
20201126031313 -2 114 3.2 16.1 0.00 0.00 0.00 95 1008.4
20201126030805 -2 136 11.3 16.1 0.00 0.00 0.00 95 1008.6
20201126030255 -2 81 4.8 12.9 0.00 0.00 0.00 95 1008.5
20201126025738 -2 104 6.4 12.9 0.00 0.00 0.00 95 1008.5
20201126025236 -2 137 9.7 16.1 0.00 0.00 0.00 95 1008.4
20201126024722 -2 92 4.8 16.1 0.00 0.00 0.00 95 1008.6
20201126024216 -2 190 1.6 16.1 0.00 0.00 0.00 95 1008.5
20201126023708 -2 114 4.8 16.1 0.00 0.00 0.00 95 1008.5
20201126023146 -2 107 1.6 16.1 0.00 0.00 0.00 95 1008.6
20201126022637 -2 125 8.0 12.9 0.00 0.00 0.00 95 1008.7
20201126022129 -2 125 6.4 12.9 0.00 0.00 0.00 95 1009.1
20201126021622 -2 130 6.4 12.9 0.00 0.00 0.00 95 1008.8
20201126021115 -2 350 0.0 8.0 0.00 0.00 0.00 95 1009.1
20201126020610 -2 312 0.0 12.9 0.00 0.00 0.00 95 1009.1
20201126020111 -2 93 6.4 12.9 0.00 0.00 0.00 95 1009.4
20201126015548 -2 109 3.2 12.9 0.00 0.00 0.00 95 1009.0
20201126015044 -2 96 3.2 12.9 0.00 0.00 0.00 95 1009.2
20201126014536 -2 120 3.2 8.0 0.00 0.00 0.00 95 1009.6
20201126014027 -2 139 3.2 8.0 0.00 0.00 0.00 95 1009.6
20201126013519 -2 222 0.0 8.0 0.00 0.00 0.00 95 1009.5
20201126013018 -2 296 0.0 12.9 0.00 0.00 0.00 95 1009.4
20201126012500 -2 311 3.2 12.9 0.00 0.00 0.00 95 1009.3
20201126011955 -2 140 3.2 12.9 0.00 0.00 0.00 95 1009.4
20201126011445 -2 135 1.6 16.1 0.00 0.00 0.00 95 1009.3
20201126010938 -2 135 6.4 8.0 0.00 0.00 0.00 95 1009.2
20201126010437 -2 135 3.2 12.9 0.00 0.00 0.00 95 1009.1
20201126005921 -2 107 1.6 12.9 0.00 0.00 0.00 95 1009.3
20201126005412 -2 171 3.2 16.1 0.00 0.00 0.00 95 1009.3
20201126004907 -2 127 4.8 12.9 0.00 0.00 0.00 95 1009.3
20201126004356 -2 148 4.8 12.9 0.00 0.00 0.00 95 1009.3
20201126003848 -2 100 3.2 8.0 0.00 0.00 0.00 95 1009.4
20201126003342 -2 159 4.8 16.1 0.00 0.00 0.00 95 1009.5
20201126002833 -2 328 0.0 16.1 0.00 0.00 0.00 95 1009.5
20201126002322 -2 128 4.8 16.1 0.00 0.00 0.00 95 1009.3
20201126001814 -2 94 1.6 16.1 0.00 0.00 0.00 95 1009.4
20201126001307 -2 190 9.7 16.1 0.00 0.00 0.00 95 1009.3
20201126000750 -2 127 3.2 16.1 0.00 0.00 0.00 95 1009.4
20201126000240 -2 38 3.2 16.1 0.00 0.00 0.00 95 1009.4
20201125235730 -2 130 3.2 16.1 0.00 0.00 0.00 95 1009.7
20201125235225 -2 273 3.2 16.1 0.00 0.00 0.00 95 1009.7
20201125234715 -2 128 4.8 16.1 0.00 0.00 0.00 95 1009.8
20201125234206 -2 139 9.7 12.9 0.00 0.00 0.00 95 1009.9
20201125233658 -2 121 6.4 12.9 0.00 0.00 0.00 95 1009.6
20201125233152 -2 125 3.2 12.9 0.00 0.00 0.00 95 1009.6
20201125232643 -2 126 8.0 12.9 0.00 0.00 0.00 95 1009.4
20201125232132 -2 185 0.0 12.9 0.00 0.00 0.00 95 1009.7
20201125231624 -2 124 4.8 12.9 0.00 0.00 0.00 95 1009.6
20201125231117 -2 117 6.4 16.1 0.00 0.00 0.00 95 1009.5
20201125230614 -2 115 1.6 16.1 0.00 0.00 0.00 95 1009.8
20201125230116 -2 132 9.7 16.1 0.00 0.00 0.00 95 1009.6
20201125225555 -2 141 4.8 12.9 0.00 0.00 0.00 95 1009.4
20201125225050 -2 154 4.8 12.9 0.00 0.00 0.00 95 1009.9
20201125224539 -2 162 3.2 12.9 0.00 0.00 0.00 95 1009.5
20201125224029 -2 106 3.2 12.9 0.00 0.00 0.00 95 1009.4
20201125223525 -2 112 3.2 8.0 0.00 0.00 0.00 94 1009.6
20201125223017 -2 107 0.0 12.9 0.00 0.00 0.00 94 1009.6
20201125222517 -2 227 0.0 12.9 0.00 0.00 0.00 94 1009.7
20201125221949 -2 139 4.8 12.9 0.00 0.00 0.00 94 1009.8
20201125221441 -2 84 3.2 12.9 0.00 0.00 0.00 94 1010.1
20201125220932 -2 298 0.0 12.9 0.00 0.00 0.00 94 1009.9
20201125220423 -2 243 0.0 8.0 0.00 0.00 0.00 94 1009.8
20201125215915 -2 184 3.2 8.0 0.00 0.00 0.00 94 1010.1
20201125215413 -2 140 0.0 8.0 0.00 0.00 0.00 93 1010.0
20201125214859 -2 131 4.8 8.0 0.00 0.00 0.00 93 1009.9
20201125214351 -2 137 3.2 8.0 0.00 0.00 0.00 93 1010.1
20201125213848 -2 106 0.0 8.0 0.00 0.00 0.00 93 1010.1
20201125213335 -2 143 1.6 8.0 0.00 0.00 0.00 92 1010.0
20201125212828 -2 120 1.6 8.0 0.00 0.00 0.00 92 1009.9
20201125212321 -2 113 4.8 8.0 0.00 0.00 0.00 92 1010.1
20201125211818 -2 125 3.2 8.0 0.00 0.00 0.00 92 1009.9
20201125211302 -2 129 0.0 12.9 0.00 0.00 0.00 92 1010.0
20201125210752 -2 67 0.0 12.9 0.00 0.00 0.00 92 1009.9
20201125210245 -2 90 1.6 12.9 0.00 0.03 0.00 92 1009.9
20201125205739 -2 166 3.2 12.9 0.00 0.03 0.00 93 1009.9
20201125205232 -2 144 3.2 12.9 0.00 0.03 0.00 92 1010.1
20201125204728 -2 22 1.6 12.9 0.00 0.03 0.00 92 1010.2
20201125204218 -2 144 6.4 12.9 0.00 0.03 0.00 92 1010.2
20201125203706 -1 250 1.6 8.0 0.00 0.03 0.00 92 1010.3
20201125203202 -2 189 1.6 12.9 0.00 0.03 0.00 92 1010.8
20201125202649 -1 269 0.0 12.9 0.00 0.03 0.00 93 1010.5
20201125202139 -2 155 0.0 8.0 0.00 0.03 0.00 93 1010.4
20201125201632 -2 146 4.8 12.9 0.00 0.03 0.00 92 1010.2
20201125201127 -2 175 1.6 12.9 0.00 0.03 0.00 92 1010.8
20201125200616 -2 141 0.0 12.9 0.00 0.03 0.00 92 1010.5
20201125200109 -2 125 9.7 12.9 0.00 0.03 0.00 92 1010.4
20201125195559 -2 148 3.2 12.9 0.00 0.03 0.00 92 1010.6
20201125195042 -2 156 0.0 12.9 0.00 0.03 0.00 92 1010.9
20201125194537 -1 130 0.0 12.9 0.00 0.03 0.00 92 1010.9
20201125194024 -1 305 0.0 12.9 0.00 0.03 0.00 92 1010.5
20201125193519 -1 176 3.2 12.9 0.00 0.03 0.00 92 1010.8
20201125193020 -2 256 1.6 12.9 0.00 0.03 0.00 92 1010.9
20201125192510 -2 335 0.0 12.9 0.00 0.03 0.00 92 1010.9
20201125191952 -2 198 6.4 12.9 0.00 0.03 0.00 92 1010.6
20201125191445 -1 297 0.0 12.9 0.00 0.03 0.00 92 1010.6
20201125190938 -1 146 3.2 12.9 0.00 0.03 0.00 93 1010.6
20201125190429 -2 229 3.2 12.9 0.00 0.03 0.00 92 1010.9
20201125185919 -1 246 6.4 16.1 0.00 0.03 0.00 92 1010.9
20201125185414 -1 127 1.6 16.1 0.00 0.03 0.00 92 1010.9
20201125184904 -1 267 0.0 12.9 0.00 0.03 0.00 92 1011.2
20201125184356 -2 267 1.6 8.0 0.00 0.03 0.00 92 1011.2
20201125183848 -2 267 1.6 12.9 0.00 0.03 0.00 92 1011.2
20201125183338 -2 267 3.2 12.9 0.00 0.03 0.00 92 1011.2
20201125182830 -2 267 4.8 8.0 0.00 0.03 0.00 91 1011.4
20201125182322 -1 267 1.6 8.0 0.00 0.03 0.00 92 1011.3
20201125181819 -2 267 0.0 12.9 0.00 0.03 0.00 92 1011.2
20201125181308 -2 267 0.0 16.1 0.00 0.03 0.00 93 1011.4
20201125180802 -2 267 4.8 16.1 0.00 0.03 0.00 92 1011.2
20201125180251 -1 277 3.2 8.0 0.00 0.03 0.00 92 1011.4
20201125175743 -1 277 0.0 8.0 0.00 0.03 0.00 92 1011.5
20201125175237 -2 277 4.8 8.0 0.00 0.03 0.00 92 1011.7
20201125174728 -2 277 0.0 12.9 0.00 0.03 0.00 93 1011.5
20201125174218 -2 278 3.2 12.9 0.00 0.03 0.00 93 1011.9
20201125173716 -2 278 3.2 12.9 0.00 0.03 0.00 93 1011.8
20201125173202 -2 278 4.8 12.9 0.00 0.03 0.00 93 1011.8
20201125172644 -2 279 1.6 8.0 0.00 0.03 0.00 93 1012.0
20201125172139 -2 279 1.6 8.0 0.00 0.03 0.00 93 1012.1
20201125171627 -2 279 0.0 8.0 0.00 0.03 0.00 93 1012.2
20201125171119 -2 279 3.2 8.0 0.00 0.03 0.00 93 1012.4
20201125170614 -2 280 3.2 8.0 0.00 0.03 0.00 92 1012.5
20201125170109 -2 280 1.6 12.9 0.00 0.03 0.00 92 1012.5
20201125165554 -2 280 4.8 12.9 0.00 0.03 0.00 92 1012.4
20201125165050 -2 245 1.6 8.0 0.00 0.03 0.00 92 1012.8
20201125164543 -2 109 0.0 12.9 0.00 0.03 0.00 92 1012.9
20201125164031 -2 108 6.4 8.0 0.00 0.03 0.00 92 1012.6
20201125163526 -2 108 0.0 16.1 0.00 0.03 0.00 93 1012.9
20201125163015 -2 108 1.6 16.1 0.00 0.03 0.00 93 1012.8
20201125162512 -2 233 1.6 8.0 0.00 0.03 0.00 93 1012.8
20201125161951 -2 233 0.0 8.0 0.00 0.03 0.00 93 1012.8
20201125161439 -2 233 3.2 12.9 0.00 0.03 0.00 93 1012.9
20201125160933 -2 234 3.2 12.9 0.00 0.03 0.00 93 1012.8
20201125160425 -2 202 0.0 8.0 0.00 0.03 0.00 93 1013.0
20201125155915 -2 202 4.8 8.0 0.00 0.03 0.00 93 1013.0
20201125155413 -2 203 3.2 8.0 0.00 0.03 0.00 93 1013.1
20201125154852 -2 203 0.0 8.0 0.00 0.03 0.00 93 1012.8
20201125154341 -2 203 0.0 12.9 0.00 0.03 0.00 93 1012.9
20201125153833 -2 203 0.0 12.9 0.00 0.03 0.00 93 1013.0
20201125153327 -2 203 4.8 8.0 0.00 0.03 0.00 94 1013.1
20201125152815 -2 262 0.0 8.0 0.00 0.03 0.00 94 1013.0
20201125152307 -2 262 0.0 8.0 0.00 0.03 0.00 94 1013.0
20201125151805 -2 262 0.0 8.0 0.00 0.03 0.00 94 1013.1
20201125151251 -2 262 0.0 8.0 0.00 0.03 0.00 94 1012.9
20201125150734 -2 262 3.2 8.0 0.00 0.03 0.00 94 1012.7
20201125150224 -2 262 0.0 3.2 0.00 0.03 0.00 94 1012.9
20201125145718 -2 262 0.0 3.2 0.00 0.03 0.00 93 1012.8
20201125145201 -2 262 0.0 3.2 0.00 0.03 0.00 93 1012.9
20201125144652 -2 262 0.0 3.2 0.00 0.03 0.00 94 1012.8
20201125144143 -2 262 1.6 8.0 0.00 0.03 0.00 94 1012.9
20201125143643 -2 262 0.0 8.0 0.00 0.03 0.00 94 1012.8
20201125143129 -2 262 0.0 3.2 0.00 0.03 0.00 94 1012.8
20201125142608 -2 262 0.0 3.2 0.00 0.03 0.00 94 1013.3
20201125142048 -2 262 0.0 3.2 0.00 0.03 0.00 94 1012.9
20201125141540 -2 262 0.0 8.0 0.00 0.03 0.00 94 1013.0
20201125141053 -2 262 0.0 8.0 0.00 0.03 0.00 94 1013.3
20201125140524 -2 262 0.0 3.2 0.00 0.03 0.00 94 1012.9
20201125140027 -2 262 0.0 12.9 0.00 0.03 0.00 94 1013.0
20201125135457 -2 262 1.6 12.9 0.00 0.03 0.00 94 1012.9
20201125134949 -2 262 1.6 8.0 0.00 0.03 0.00 94 1012.7
20201125134452 -2 262 0.0 8.0 0.00 0.03 0.00 94 1012.9
20201125133932 -2 262 0.0 12.9 0.00 0.03 0.00 94 1013.0
20201125133424 -2 262 1.6 12.9 0.00 0.03 0.00 94 1013.1
20201125132921 -2 262 0.0 12.9 0.00 0.03 0.00 93 1013.0
20201125132408 -2 262 0.0 12.9 0.00 0.03 0.00 94 1013.0
20201125131900 -2 262 1.6 8.0 0.00 0.03 0.00 94 1012.8
20201125131353 -2 262 1.6 8.0 0.00 0.03 0.00 93 1012.9
20201125130846 -2 262 0.0 8.0 0.00 0.03 0.00 93 1012.9
20201125130344 -2 262 1.6 8.0 0.00 0.03 0.00 93 1012.8
20201125125829 -2 262 0.0 8.0 0.00 0.03 0.00 93 1012.7
20201125125323 -2 262 0.0 12.9 0.00 0.03 0.00 93 1012.8
20201125124812 -2 262 6.4 12.9 0.00 0.03 0.00 93 1012.5
20201125124302 -2 262 0.0 12.9 0.00 0.03 0.00 93 1012.5
20201125123756 -2 262 0.0 0.0 0.00 0.03 0.00 93 1012.2
20201125123248 -2 262 0.0 3.2 0.00 0.03 0.00 93 1012.4
20201125122741 -2 262 0.0 3.2 0.00 0.03 0.00 92 1012.3
20201125122231 -2 262 0.0 8.0 0.00 0.03 0.00 92 1012.4
20201125121722 -2 262 0.0 8.0 0.00 0.03 0.00 92 1012.4
20201125121218 -2 262 4.8 8.0 0.00 0.03 0.00 92 1012.3
20201125120708 -2 262 4.8 8.0 0.00 0.03 0.00 93 1012.3
20201125120159 -2 262 1.6 8.0 0.00 0.03 0.00 93 1012.3
20201125115648 -2 262 1.6 8.0 0.00 0.03 0.00 93 1012.6
20201125115143 -2 262 4.8 8.0 0.00 0.03 0.00 94 1012.3
20201125114634 -2 262 0.0 8.0 0.00 0.03 0.00 94 1012.4
20201125114123 -2 262 1.6 3.2 0.00 0.03 0.00 94 1012.4
20201125113621 -2 262 0.0 3.2 0.00 0.03 0.00 94 1012.5
20201125113107 -2 262 0.0 3.2 0.00 0.03 0.00 94 1012.3
20201125112559 -2 262 0.0 3.2 0.00 0.03 0.00 94 1012.5
20201125112050 -2 262 0.0 8.0 0.00 0.03 0.00 94 1012.3
20201125111542 -2 262 0.0 8.0 0.00 0.03 0.00 94 1012.6
20201125111037 -2 262 0.0 8.0 0.00 0.03 0.00 94 1012.7
20201125110526 -2 262 3.2 8.0 0.00 0.03 0.00 93 1012.6
20201125110024 -2 262 0.0 8.0 0.00 0.03 0.00 93 1012.5
20201125105515 -2 262 1.6 12.9 0.00 0.03 0.00 93 1012.6
20201125105008 -2 262 4.8 12.9 0.00 0.03 0.00 93 1012.7
20201125104455 -2 262 3.2 8.0 0.00 0.03 0.00 93 1012.5
20201125103946 -2 262 0.0 12.9 0.00 0.03 0.00 93 1012.7
20201125103438 -2 262 3.2 12.9 0.00 0.03 0.00 93 1012.4
20201125102929 -2 262 4.8 12.9 0.00 0.03 0.00 93 1012.9
20201125102421 -2 262 3.2 12.9 0.00 0.03 0.00 93 1012.5
20201125101915 -2 262 3.2 12.9 0.00 0.03 0.00 93 1012.8
20201125101354 -2 262 6.4 8.0 0.00 0.03 0.00 94 1012.7
20201125100844 -2 261 0.0 8.0 0.00 0.03 0.00 93 1012.6
20201125100340 -2 262 3.2 12.9 0.00 0.03 0.00 94 1012.7
20201125095829 -2 261 9.7 12.9 0.00 0.03 0.00 94 1012.8
20201125095322 -2 261 0.0 8.0 0.00 0.03 0.00 94 1012.7
20201125094812 -2 261 0.0 8.0 0.00 0.03 0.00 95 1012.6
20201125094305 -2 261 0.0 8.0 0.00 0.03 0.00 94 1012.8
20201125093759 -2 261 1.6 8.0 0.00 0.03 0.00 94 1012.4
20201125093238 -2 261 1.6 8.0 0.00 0.03 0.00 94 1012.6
20201125092732 -2 261 0.0 8.0 0.00 0.03 0.00 94 1012.7
20201125092222 -1 261 0.0 8.0 0.00 0.03 0.00 94 1012.8
20201125091703 -2 261 0.0 12.9 0.00 0.03 0.00 94 1012.6
20201125091157 -1 261 0.0 12.9 0.00 0.03 0.00 95 1012.8
20201125090646 -1 261 0.0 8.0 0.00 0.03 0.00 95 1012.7
20201125090159 -1 261 3.2 12.9 0.00 0.03 0.00 95 1013.0
20201125085628 -1 261 8.0 12.9 0.00 0.03 0.00 95 1013.3
20201125085114 -1 260 1.6 12.9 0.00 0.03 0.00 96 1013.1
20201125084553 -1 291 3.2 8.0 0.00 0.03 0.00 96 1013.3
20201125084047 -1 290 0.0 12.9 0.00 0.03 0.00 96 1013.1
20201125083537 -1 291 3.2 12.9 0.00 0.03 0.00 96 1013.4
20201125083033 -1 290 0.0 8.0 0.00 0.03 0.00 96 1013.1
20201125082520 -1 325 4.8 8.0 0.00 0.03 0.00 96 1013.3
20201125082018 -1 325 0.0 8.0 0.00 0.03 0.00 96 1013.0
20201125081519 -1 325 0.0 8.0 0.00 0.03 0.00 96 1012.9
20201125080953 -1 299 8.0 8.0 0.00 0.03 0.00 96 1013.1
20201125080448 -1 303 0.0 8.0 0.00 0.03 0.00 96 1013.1
20201125075937 -1 303 1.6 12.9 0.00 0.03 0.00 96 1012.9
20201125075428 -1 324 0.0 12.9 0.00 0.03 0.00 97 1012.9
20201125074923 -1 308 0.0 8.0 0.00 0.03 0.00 97 1012.9
20201125074403 -1 267 4.8 8.0 0.00 0.03 0.00 97 1012.6
20201125073856 -1 267 3.2 8.0 0.00 0.03 0.00 97 1012.8
20201125073345 -1 265 0.0 8.0 0.00 0.03 0.00 98 1012.8
20201125072836 -1 265 1.6 12.9 0.00 0.03 0.00 98 1012.8
20201125072338 -1 264 3.2 12.9 0.00 0.03 0.00 98 1012.8
20201125071819 -1 292 4.8 12.9 0.00 0.03 0.00 99 1012.7
20201125071323 -1 294 0.0 3.2 0.00 0.03 0.00 99 1012.5
20201125070809 -1 294 0.0 8.0 0.00 0.03 0.00 99 1012.7
20201125070257 -1 294 0.0 12.9 0.00 0.03 0.00 99 1012.8
20201125065757 -1 294 6.4 12.9 0.00 0.03 0.00 99 1012.8
20201125065244 -1 294 0.0 8.0 0.00 0.03 0.00 99 1012.8
20201125064732 -1 295 1.6 12.9 0.00 0.03 0.00 99 1012.7
20201125064228 -1 295 3.2 12.9 0.00 0.03 0.00 99 1012.8
20201125063708 -1 298 3.2 12.9 0.00 0.03 0.00 99 1012.7
20201125063201 -1 303 4.8 12.9 0.00 0.03 0.00 99 1012.9
20201125062649 -1 304 1.6 8.0 0.00 0.03 0.00 99 1012.8
20201125062144 -1 304 0.0 8.0 0.00 0.03 0.00 99 1012.9
20201125061634 -1 304 0.0 12.9 0.00 0.03 0.00 99 1013.1
20201125061125 -1 304 4.8 12.9 0.00 0.03 0.00 99 1012.9
20201125060618 0 304 4.8 12.9 0.00 0.03 0.00 99 1013.1
20201125060111 0 304 3.2 12.9 0.00 0.03 0.00 99 1012.7
20201125055558 0 304 0.0 12.9 0.00 0.03 0.03 99 1012.8
20201125055051 0 304 1.6 8.0 0.00 0.03 0.03 99 1012.6
20201125054547 0 304 3.2 8.0 0.00 0.03 0.03 99 1012.6
20201125054034 0 304 3.2 8.0 0.00 0.03 0.03 99 1012.5
20201125053540 0 304 0.0 8.0 0.00 0.03 0.03 99 1012.6
20201125053025 0 304 0.0 8.0 0.00 0.03 0.03 99 1012.5
20201125052516 0 304 0.0 8.0 0.00 0.03 0.03 99 1012.5
20201125051955 0 304 0.0 8.0 0.00 0.03 0.03 99 1012.2
20201125051431 0 304 0.0 8.0 0.00 0.03 0.03 99 1012.4
20201125050926 0 304 1.6 12.9 0.00 0.03 0.03 99 1012.7
20201125050419 0 304 3.2 12.9 0.00 0.03 0.03 99 1012.4
20201125045901 0 314 0.0 12.9 0.00 0.03 0.03 99 1012.3
20201125045348 0 314 6.4 12.9 0.00 0.03 0.03 99 1012.3
20201125044843 0 293 3.2 8.0 0.00 0.03 0.03 99 1012.2
20201125044331 0 301 0.0 8.0 0.00 0.03 0.03 99 1012.1
20201125043824 0 276 6.4 8.0 0.00 0.03 0.03 99 1012.1
20201125043315 0 283 0.0 12.9 0.00 0.03 0.03 99 1012.4
20201125042809 0 262 1.6 12.9 0.00 0.03 0.03 99 1012.4
20201125042305 0 310 0.0 8.0 0.00 0.03 0.03 99 1012.4
20201125041749 0 300 3.2 8.0 0.00 0.03 0.03 99 1012.4
20201125041242 0 280 0.0 8.0 0.00 0.03 0.03 99 1012.2
20201125040735 0 273 3.2 16.1 0.00 0.03 0.03 99 1012.3
20201125040226 0 289 6.4 16.1 0.00 0.03 0.03 99 1012.1
20201125035716 0 305 3.2 8.0 0.00 0.03 0.03 99 1012.1